[[{"header":{"parameterUnit":"m.s-1","parameterCategory":1,"la1":30.2991,"la2":30.254,"lo1":-89.0895,"lo2":-89.0444,"dy":0.0017,"dx":0.0017,"nx":28,"ny":28,"refTime":"2024-02-15T03:00:00:Z","depth":0,"parameterNumber":2,"parameterNumberName":"U-component_of_WINDS"},"data":[0,0,0,0,0,0,0,0,0,0,0,0,0,0,0,0,0,0,0,0,0,0,0,0,0,0,0,0,0,0,0,0,0,0,0,0,0,0,0,0,0,0,0,0,0,0,0,0,0,0,0,0,0,0,0,0,0,0,-2.1467,-2.1467,0,-2.143,-2.143,-2.143,-2.1359,-2.1358,-2.1356,-2.1355,-2.1319,-2.132,-2.132,0,0,0,0,0,0,0,0,0,0,0,0,0,-2.1477,-2.1478,-2.1467,-2.1466,-2.1466,-2.1431,-2.143,-2.143,-2.1359,-2.1358,-2.1356,-2.1354,-2.1319,-2.132,-2.132,0,0,0,0,0,0,0,0,0,0,0,0,0,-2.146,-2.1478,-2.1467,-2.1427,-2.1423,-2.1431,-2.143,-2.1429,-2.136,-2.1358,-2.1356,-2.1354,-2.1319,-2.132,-2.132,-2.1365,0,0,-2.1322,-2.1322,0,0,0,0,0,0,0,0,-2.1461,-2.146,-2.1433,-2.143,-2.1425,-2.1397,-2.142,-2.1408,-2.136,-2.1384,-2.1355,-2.1353,-2.1347,-2.1345,-2.1343,-2.1363,-2.1361,-2.1322,-2.1322,-2.1322,-2.1322,0,0,0,0,0,0,0,-2.1463,-2.1461,-2.1453,-2.1433,-2.1428,-2.1411,-2.1406,-2.1418,-2.1378,-2.1382,-2.1376,-2.1373,-2.1344,-2.1343,-2.1341,-2.1361,-2.1322,-2.1322,-2.1322,-2.1323,-2.1416,-2.1419,0,0,0,0,0,0,-2.1469,-2.1463,-2.1454,-2.1451,-2.1438,-2.1413,-2.1407,-2.1408,-2.1377,-2.137,-2.1375,-2.137,-2.1343,-2.1341,-2.134,-2.139,-2.1322,-2.1323,-2.1323,-2.1414,-2.1417,-2.1419,0,0,0,0,0,0,-2.147,-2.1469,-2.1455,-2.1456,-2.1452,-2.1415,-2.1416,-2.1409,-2.1407,-2.1372,-2.1365,-2.138,-2.1341,-2.1339,-2.1359,-2.1388,-2.1323,-2.1323,-2.1412,-2.1415,-2.1418,-2.1492,0,0,0,0,0,0,-2.1471,-2.147,-2.1486,-2.1456,-2.1453,-2.1475,-2.1418,-2.1409,-2.1408,-2.1401,-2.1375,-2.1369,-2.1339,-2.1359,-2.136,-2.1388,-2.1324,-2.1409,-2.1413,-2.1417,-2.1487,-2.1497,-2.1506,0,0,0,0,0,-2.1471,-2.1508,-2.1487,-2.1487,-2.1472,-2.1476,-2.1474,-2.1439,-2.141,-2.1426,-2.1404,-2.137,-2.1385,-2.1361,-2.1362,-2.139,-2.1407,-2.1412,-2.1417,-2.1482,-2.1495,-2.1506,0,0,0,0,0,0,-2.1543,-2.1504,-2.148,-2.1509,-2.1496,-2.1465,-2.1484,-2.1454,-2.145,-2.1444,-2.14,-2.1395,-2.1421,-2.1408,-2.1382,-2.1432,-2.139,-2.1396,-2.144,-2.1452,-2.1462,-2.1464,-2.1324,0,0,0,0,0,-2.1562,-2.1568,-2.1534,-2.1563,-2.1558,-2.1522,-2.1523,-2.1497,-2.1482,-2.1477,-2.1456,-2.1444,-2.1446,-2.1448,-2.1448,-2.1484,-2.1478,-2.1504,-2.1514,-2.1522,-2.1528,-2.1546,-2.1557,-2.1436,-2.1435,-2.1435,0,0,-2.1602,-2.1581,-2.1588,-2.1577,-2.1564,-2.1572,-2.1518,-2.1529,-2.1535,-2.1479,-2.1496,-2.1481,-2.1464,-2.1493,-2.1504,-2.1482,-2.156,-2.1529,-2.1536,-2.1536,-2.1552,-2.1564,-2.1574,-2.1439,-2.1438,-2.1438,0,0,-2.1678,-2.1663,-2.1685,-2.1674,-2.1655,-2.1632,-2.1637,-2.161,-2.1597,-2.1614,-2.1572,-2.1579,-2.1583,-2.1573,-2.1569,-2.1642,-2.161,-2.1644,-2.1695,-2.1714,-2.1723,-2.1731,-2.1758,-2.1768,-2.1649,-2.1649,-2.1649,0,-2.173,-2.174,-2.1701,-2.1714,-2.1711,-2.166,-2.1683,-2.1674,-2.1657,-2.1656,-2.1632,-2.1636,-2.1622,-2.1647,-2.1665,-2.1663,-2.1668,-2.1646,-2.1725,-2.1733,-2.174,-2.1765,-2.1775,-2.1653,-2.1653,-2.1652,-2.1652,0,-2.1805,-2.1812,-2.1833,-2.1817,-2.1816,-2.1834,-2.1798,-2.1802,-2.1776,-2.1755,-2.1773,-2.1754,-2.1749,-2.1754,-2.1729,-2.1776,-2.1763,-2.1733,-2.169,-2.1756,-2.1779,-2.1788,-2.1659,-2.1657,-2.1656,-2.1655,0,0,-2.1925,-2.1888,-2.1896,-2.1888,-2.1864,-2.187,-2.1886,-2.1881,-2.1885,-2.1875,-2.1888,-2.1893,-2.1865,-2.186,-2.1833,-2.185,-2.191,-2.1817,-2.1816,-2.1835,-2.1961,-2.1984,-2.1996,-2.1888,-2.189,-2.1891,-2.1962,0,-2.1996,-2.2021,-2.1987,-2.2019,-2.2026,-2.1979,-2.1993,-2.198,-2.1961,-2.1964,-2.1943,-2.1948,-2.191,-2.1907,-2.1921,-2.1899,-2.1934,-2.1894,-2.19,-2.1901,-2.1906,-2.2007,-2.2032,-2.2099,-2.1971,-2.1972,-2.1973,0,-2.2082,-2.2076,-2.211,-2.2084,-2.2086,-2.2099,-2.2092,-2.2095,-2.208,-2.2065,-2.206,-2.2029,-2.2043,-2.2002,-2.2022,-2.1995,-2.1996,-2.1986,-2.1988,-2.1987,-2.1941,-2.201,-2.212,-2.2131,-2.1987,-2.1986,-2.1985,0,-2.2167,-2.2167,-2.2187,-2.2182,-2.2153,-2.2163,-2.2152,-2.2134,-2.2134,-2.2128,-2.2127,-2.2123,-2.2121,-2.2119,-2.2088,-2.206,-2.2112,-2.2068,-2.21,-2.2101,-2.2113,-2.2113,-2.2226,-2.2114,-2.2114,-2.2113,-2.2113,0,-2.225,-2.2272,-2.2225,-2.2237,-2.2261,-2.2222,-2.2247,-2.223,-2.2216,-2.2224,-2.2183,-2.2192,-2.215,-2.2155,-2.2131,-2.2151,-2.215,-2.2139,-2.2132,-2.2143,-2.2144,-2.2143,-2.2137,-2.2116,-2.2115,-2.2115,-2.2114,0,-2.2349,-2.2318,-2.2336,-2.2307,-2.23,-2.2319,-2.2294,-2.2305,-2.2283,-2.2295,-2.2295,-2.2262,-2.2265,-2.2234,-2.2232,-2.2215,-2.2247,-2.2232,-2.2252,-2.2248,-2.2282,-2.2279,-2.2398,-2.2411,-2.2291,-2.2292,-2.2293,0,-2.2404,-2.242,-2.2392,-2.2395,-2.2385,-2.239,-2.2389,-2.2351,-2.2352,-2.2337,-2.2349,-2.235,-2.2348,-2.2356,-2.2332,-2.233,-2.2315,-2.2356,-2.2314,-2.2324,-2.2315,-2.2315,-2.2316,-2.2365,-2.2367,-2.2368,-2.2369,0,-2.2505,-2.2489,-2.2488,-2.2484,-2.2484,-2.2478,-2.2469,-2.2474,-2.2433,-2.2437,-2.244,-2.2438,-2.2436,-2.2437,-2.2431,-2.2419,-2.2388,-2.2383,-2.239,-2.2401,-2.2412,-2.2406,-2.2276,-2.238,-2.2379,-2.2378,-2.2377,-2.2377,-2.2583,-2.2595,-2.2578,-2.2579,-2.2569,-2.2562,-2.2571,-2.255,-2.2552,-2.2547,-2.2525,-2.2532,-2.2517,-2.2505,-2.2497,-2.2502,-2.2482,-2.2493,-2.2495,-2.2499,-2.2505,-2.2411,-2.2501,-2.25,-2.25,-2.25,-2.25,0,-2.2682,-2.2668,-2.267,-2.266,-2.2661,-2.2631,-2.262,-2.2624,-2.263,-2.2619,-2.2618,-2.2622,-2.2623,-2.2599,-2.2597,-2.2606,-2.2591,-2.2607,-2.2605,-2.2603,-2.2523,-2.2517,-2.2618,-2.2618,-2.2618,-2.2618,-2.2618,-2.2618,-2.2733,-2.2752,-2.2735,-2.2748,-2.2735,-2.2741,-2.2738,-2.2732,-2.2722,-2.2728,-2.2729,-2.2713,-2.2696,-2.2693,-2.2693,-2.2685,-2.2687,-2.2707,-2.2695,-2.2621,-2.2609,-2.2598,-2.2592,-2.2708,-2.2708,-2.2775,-2.2776,-2.2776]},{"header":{"parameterUnit":"m.s-1","parameterCategory":1,"la1":30.2991,"la2":30.254,"lo1":-89.0895,"lo2":-89.0444,"dy":0.0017,"dx":0.0017,"nx":28,"ny":28,"refTime":"2024-02-15T03:00:00:Z","depth":0,"parameterNumber":3,"parameterNumberName":"V-component_of_WINDS"},"data":[0,0,0,0,0,0,0,0,0,0,0,0,0,0,0,0,0,0,0,0,0,0,0,0,0,0,0,0,0,0,0,0,0,0,0,0,0,0,0,0,0,0,0,0,0,0,0,0,0,0,0,0,0,0,0,0,0,0,-1.1982,-1.1983,0,-1.2038,-1.2039,-1.204,-1.2022,-1.2021,-1.202,-1.2019,-1.2078,-1.208,-1.2083,0,0,0,0,0,0,0,0,0,0,0,0,0,-1.1859,-1.1861,-1.1982,-1.1983,-1.1983,-1.2038,-1.2039,-1.204,-1.2023,-1.2021,-1.202,-1.2018,-1.2077,-1.208,-1.2083,0,0,0,0,0,0,0,0,0,0,0,0,0,-1.1914,-1.1862,-1.1982,-1.1981,-1.1982,-1.2038,-1.2039,-1.204,-1.2023,-1.2021,-1.2019,-1.2018,-1.2076,-1.208,-1.2084,-1.2144,0,0,-1.2096,-1.2098,0,0,0,0,0,0,0,0,-1.1911,-1.1918,-1.1981,-1.1982,-1.1982,-1.2021,-1.2017,-1.2075,-1.2023,-1.2007,-1.2019,-1.2017,-1.2061,-1.2066,-1.208,-1.2147,-1.2149,-1.2096,-1.2099,-1.2101,-1.2102,0,0,0,0,0,0,0,-1.1907,-1.1916,-1.2004,-1.1982,-1.1983,-1.1978,-1.1984,-1.2028,-1.2043,-1.2009,-1.2007,-1.2014,-1.2061,-1.2076,-1.2082,-1.215,-1.2096,-1.21,-1.2102,-1.2104,-1.2267,-1.2269,0,0,0,0,0,0,-1.1903,-1.1913,-1.2003,-1.2006,-1.1941,-1.1982,-1.1988,-1.2011,-1.2043,-1.2046,-1.2016,-1.2013,-1.207,-1.2077,-1.2084,-1.2155,-1.21,-1.2104,-1.2107,-1.2265,-1.2268,-1.227,0,0,0,0,0,0,-1.19,-1.1911,-1.2,-1.1959,-1.197,-1.1986,-1.2011,-1.2013,-1.2028,-1.2048,-1.2051,-1.2029,-1.2069,-1.2078,-1.2129,-1.2157,-1.2106,-1.211,-1.2263,-1.2266,-1.2269,-1.23,0,0,0,0,0,0,-1.1897,-1.191,-1.1933,-1.196,-1.1972,-1.2045,-1.2013,-1.2015,-1.2035,-1.2033,-1.2061,-1.2065,-1.2069,-1.2123,-1.2133,-1.2162,-1.2113,-1.2261,-1.2264,-1.2268,-1.2296,-1.2303,-1.2309,0,0,0,0,0,-1.1892,-1.194,-1.1935,-1.1946,-1.2002,-1.2046,-1.2054,-1.2057,-1.2038,-1.2061,-1.2073,-1.2064,-1.2152,-1.2128,-1.2139,-1.217,-1.2259,-1.2263,-1.2268,-1.2293,-1.2302,-1.2309,0,0,0,0,0,0,-1.1918,-1.1944,-1.1938,-1.1996,-1.2019,-1.2043,-1.2073,-1.2066,-1.2096,-1.2092,-1.2095,-1.2102,-1.2153,-1.2167,-1.2139,-1.2229,-1.2203,-1.2209,-1.2218,-1.2227,-1.2233,-1.2229,-1.2116,0,0,0,0,0,-1.193,-1.1964,-1.1985,-1.2034,-1.2046,-1.2058,-1.2077,-1.2077,-1.2102,-1.2111,-1.2128,-1.2152,-1.2184,-1.2206,-1.2238,-1.2298,-1.2303,-1.2324,-1.2331,-1.2336,-1.2342,-1.2373,-1.2382,-1.2284,-1.2284,-1.2284,0,0,-1.1956,-1.1975,-1.1996,-1.204,-1.2058,-1.2092,-1.2066,-1.2104,-1.213,-1.2117,-1.2166,-1.2178,-1.2205,-1.226,-1.2285,-1.2273,-1.237,-1.2341,-1.2345,-1.2348,-1.2378,-1.2387,-1.2395,-1.2287,-1.2287,-1.2286,0,0,-1.2021,-1.2039,-1.2081,-1.2099,-1.2126,-1.2133,-1.2143,-1.2168,-1.2176,-1.2224,-1.2215,-1.2245,-1.2303,-1.2322,-1.2339,-1.2409,-1.24,-1.2419,-1.2453,-1.2483,-1.2491,-1.2498,-1.2522,-1.253,-1.2425,-1.2425,-1.2425,0,-1.205,-1.2102,-1.2104,-1.2142,-1.2161,-1.215,-1.2193,-1.221,-1.2246,-1.226,-1.2245,-1.2315,-1.2333,-1.2391,-1.2408,-1.2423,-1.2434,-1.2416,-1.249,-1.2497,-1.2503,-1.2526,-1.2535,-1.2427,-1.2427,-1.2426,-1.2426,0,-1.2135,-1.2171,-1.2202,-1.2236,-1.2259,-1.2299,-1.2306,-1.2329,-1.2327,-1.2335,-1.2384,-1.2404,-1.2439,-1.2453,-1.2452,-1.2511,-1.2502,-1.2489,-1.2462,-1.2514,-1.2536,-1.2544,-1.243,-1.2429,-1.2428,-1.2428,0,0,-1.2219,-1.2252,-1.2263,-1.2278,-1.2306,-1.2334,-1.2373,-1.2406,-1.2425,-1.245,-1.2482,-1.253,-1.2517,-1.2536,-1.2537,-1.2564,-1.2616,-1.2547,-1.2547,-1.2558,-1.2681,-1.269,-1.27,-1.261,-1.2612,-1.2613,-1.2678,0,-1.2285,-1.2354,-1.2356,-1.2419,-1.2451,-1.244,-1.2474,-1.2495,-1.2504,-1.2532,-1.2542,-1.2575,-1.2556,-1.2567,-1.2593,-1.2604,-1.264,-1.26,-1.264,-1.2642,-1.2633,-1.2712,-1.2722,-1.2782,-1.2686,-1.2688,-1.2689,0,-1.2373,-1.2399,-1.2464,-1.2486,-1.25,-1.253,-1.256,-1.2588,-1.261,-1.2615,-1.2635,-1.2632,-1.2671,-1.2643,-1.2697,-1.2669,-1.2685,-1.2693,-1.2696,-1.2699,-1.2668,-1.2717,-1.2802,-1.281,-1.2702,-1.2701,-1.27,0,-1.2425,-1.2478,-1.2523,-1.2536,-1.2563,-1.2584,-1.2596,-1.2617,-1.2637,-1.2662,-1.2675,-1.2705,-1.2722,-1.2745,-1.2749,-1.2729,-1.2803,-1.2776,-1.2807,-1.2807,-1.2823,-1.2822,-1.2911,-1.2834,-1.2834,-1.2834,-1.2834,0,-1.2499,-1.254,-1.2547,-1.2575,-1.2619,-1.2621,-1.2665,-1.2675,-1.2693,-1.2723,-1.2716,-1.2744,-1.2748,-1.2776,-1.278,-1.2823,-1.2831,-1.2835,-1.2835,-1.2835,-1.2835,-1.2846,-1.2842,-1.2837,-1.2836,-1.2836,-1.2835,0,-1.2566,-1.2573,-1.2621,-1.2642,-1.2648,-1.268,-1.2698,-1.2724,-1.2731,-1.2768,-1.2777,-1.2788,-1.2821,-1.2828,-1.2868,-1.287,-1.2921,-1.2917,-1.2913,-1.2912,-1.2943,-1.2939,-1.3042,-1.3055,-1.2971,-1.2971,-1.2972,0,-1.2612,-1.2643,-1.2667,-1.2685,-1.2698,-1.2729,-1.2748,-1.275,-1.2771,-1.2798,-1.2821,-1.2853,-1.2878,-1.2932,-1.2943,-1.2973,-1.297,-1.3004,-1.2974,-1.2973,-1.2969,-1.2967,-1.297,-1.3009,-1.301,-1.3011,-1.3011,0,-1.2694,-1.2695,-1.2723,-1.2751,-1.2774,-1.2797,-1.2818,-1.2834,-1.2839,-1.2862,-1.2895,-1.2915,-1.2954,-1.2986,-1.3015,-1.3027,-1.302,-1.302,-1.3029,-1.3029,-1.3025,-1.3027,-1.2928,-1.3018,-1.3018,-1.3017,-1.3017,-1.3016,-1.2751,-1.2777,-1.2797,-1.2828,-1.2844,-1.2864,-1.2889,-1.2899,-1.2926,-1.2958,-1.2958,-1.2994,-1.3014,-1.3052,-1.3066,-1.3094,-1.3084,-1.3096,-1.31,-1.3103,-1.3105,-1.3021,-1.31,-1.31,-1.31,-1.3099,-1.3099,0,-1.2831,-1.2843,-1.2871,-1.2901,-1.2925,-1.2915,-1.2938,-1.2958,-1.299,-1.301,-1.3034,-1.3072,-1.3102,-1.3115,-1.3145,-1.3165,-1.3162,-1.3172,-1.3171,-1.3173,-1.3113,-1.3102,-1.3174,-1.3174,-1.3174,-1.3174,-1.3174,-1.3174,-1.2876,-1.2919,-1.2922,-1.2972,-1.2984,-1.3019,-1.3033,-1.3051,-1.3066,-1.3108,-1.3132,-1.3141,-1.3157,-1.3188,-1.3214,-1.3217,-1.3228,-1.324,-1.3242,-1.3185,-1.3178,-1.3171,-1.316,-1.3243,-1.3243,-1.3299,-1.33,-1.33]}]]